HERMES-2

导读

HERMES-2是一颗计划于2025年3月15日发射的卫星,目前发射国家尚未公布(标注为TBD)。作为Hermes系列中的第二颗卫星,它承载着该项目的技术延续与探索使命。根据公开排期,它将在指定时间点完成发射入轨,后续将根据任务设计开展相关空间探测或技术验证工作,其具体任务细节与官方背景仍待发射临近时进一步披露。

基本信息
目录编号:
63243
目录名称:
HERMES-2
国际标识:
2025-052AK
轨道中心:
EARTH
卫星名称:
HERMES-2
卫星全名:
HERMES-2
卫星状态:
在轨 (已飞行538 天)
发射日期:
2025-03-15 UTC
国别 :
意大利 (IT)
星等 :
--
轨道信息
数据来源 国际轨道数据
星历时间: 2026-09-03T23:37:29+0800
16小时前
查看轨道信息
半长轴: 6849.088km
偏心率: 0.000418
轨道倾角: 97.377°
近地点辐角 169.992°
升交点赤经 141.193°
平近点角 190.141°
近地点: 468.088km
远地点: 473.814km
周期: 94.018分钟
每日圈数: 15.316294
详细信息
使用方式:
暂无
2D轨道图
3D轨道图
轨道高度分析图
轨道倾角分析图
轨道综合分析图
查看轨道综合分析图
交会数据列表
事件ID 空间交会对象 最接近时刻(TCA) 交会距离 交会风险概率(CRP) 交会风险指数(CRI) 操作
CDM_260905-201604-608206-324321
HERMES-2 (63243)
2026-09-05T
20:16:30+0000
0.493 km
远距离
2.099766E-4 高风险 0.81
CDM_260831-070805-195106-324324
OBJECT F (51951)
HERMES-2 (63243)
2026-08-31T
07:08:56+0000
0.548 km
远距离
1.539047E-4 高风险 0.79
CDM_260904-062306-029206-324321
HERMES-2 (63243)
2026-09-04T
06:23:43+0000
1.580 km
极远距离
5.609441E-6 低风险 0.5
CDM_260831-131104-267006-324324
HERMES-2 (63243)
2026-08-31T
13:11:52+0000
1.879 km
极远距离
3.426343E-6 低风险 0.46
CDM_260901-012705-111406-324322
HERMES-2 (63243)
2026-09-01T
01:27:54+0000
1.859 km
极远距离
2.725783E-6 低风险 0.44
CDM_260903-194706-324306-441921
HERMES-2 (63243)
2026-09-03T
19:47:56+0000
2.431 km
极远距离
1.852888E-6 低风险 0.4
CDM_260905-065805-717306-324321
OBJECT H (57173)
HERMES-2 (63243)
2026-09-05T
06:58:46+0000
2.581 km
极远距离
1.678953E-6 低风险 0.4
CDM_260904-141405-285006-324323
HERMES-2 (63243)
2026-09-04T
14:14:16+0000
2.604 km
极远距离
1.622697E-6 低风险 0.39
CDM_260903-203506-324306-441921
HERMES-2 (63243)
2026-09-03T
20:35:00+0000
2.624 km
极远距离
1.620211E-6 低风险 0.39
CDM_260901-093804-869006-324324
HERMES-2 (63243)
2026-09-01T
09:38:48+0000
2.825 km
极远距离
1.434154E-6 低风险 0.38